Location: Valencia
(39.4696°N, 0.3770°W)
Time: 17:40:14
(UTC+01:00)

ISS - Visible Passes

Search period start: 01 February 2015 00:00
Search period end: 11 February 2015 00:00
Orbit: 400 x 408 km, 51.6° (Epoch: 01 February)

Date Brightness Start Highest point End Pass type
(mag) Time Alt. Az. Time Alt. Az. Time Alt. Az.
02 Feb -0.7 20:02:07 10° S 20:02:24 11° S 20:02:24 11° S visible
03 Feb -0.4 20:44:55 10° SW 20:45:30 14° SW 20:45:30 14° SW visible
04 Feb -2.9 19:52:44 10° SSW 19:55:47 43° SE 19:55:47 43° SE visible
05 Feb -1.8 19:01:01 10° S 19:03:33 22° SE 19:05:57 11° E visible
05 Feb -1.1 20:36:48 10° WSW 20:38:38 26° W 20:38:38 26° W visible
06 Feb -3.2 19:44:08 10° WSW 19:47:23 72° NW 19:48:41 33° NE visible
07 Feb -3.1 18:51:45 10° SW 18:54:56 55° SE 18:58:09 10° ENE visible
07 Feb -1.1 20:29:01 10° WNW 20:31:17 21° NNW 20:31:17 21° NNW visible
08 Feb -1.9 19:35:58 10° W 19:38:57 32° NNW 19:41:07 16° NNE visible
09 Feb -0.8 20:21:30 10° NW 20:23:22 14° NNW 20:23:31 14° NNW visible
10 Feb -1.1 19:28:07 10° WNW 19:30:34 19° NNW 19:32:59 10° NNE visible
